Date,TemperatureHighF,TemperatureAvgF,TemperatureLowF,DewpointHighF,DewpointAvgF,DewpointLowF,HumidityHigh,HumidityAvg,HumidityLow,PressureMaxIn,PressureMinIn,WindSpeedMaxMPH,WindSpeedAvgMPH,GustSpeedMaxMPH,PrecipitationSumIn
2013-2-1,12,2,1,-100,-100,-100,0,0,100,30.05,29.81,18,8,22,0.00
2013-2-2,12,2,4,-100,-100,-100,0,0,100,30.03,29.96,19,9,21,0.00
2013-2-3,16,3,4,-100,-100,-100,0,0,100,29.96,29.73,29,10,35,0.00
2013-2-4,14,1,-5,-100,-100,-100,0,0,100,29.98,29.86,12,6,19,0.00
2013-2-5,19,3,7,-100,-100,-100,0,0,100,29.94,29.68,32,10,36,0.00
2013-2-6,10,2,1,-100,-100,-100,0,0,100,30.25,29.93,20,10,24,0.00
2013-2-7,16,3,10,-100,-100,-100,0,0,100,30.27,30.18,20,12,24,0.00
2013-2-8,15,4,6,-100,-100,-100,0,0,100,30.39,30.19,13,7,15,0.00
2013-2-9,18,2,-3,-100,-100,-100,0,0,100,30.42,30.19,19,9,22,0.00
2013-2-10,31,7,12,-100,-100,-100,0,0,100,30.19,29.57,32,17,39,0.00
2013-2-11,36,24,26,-100,-100,-100,0,0,100,29.67,29.32,36,14,43,0.00
2013-2-12,28,8,21,-100,-100,-100,0,0,100,29.88,29.67,25,12,29,0.00
2013-2-13,33,7,15,-100,-100,-100,0,0,100,29.80,29.63,8,-25,9,0.00
2013-2-14,31,8,23,-100,-100,-100,0,0,100,29.80,29.63,29,3,32,0.00
2013-2-15,22,4,11,-100,-100,-100,0,0,100,30.08,29.80,29,15,33,0.00
2013-2-16,12,2,1,-100,-100,-100,0,0,100,30.13,30.05,12,5,13,0.00
2013-2-17,14,2,-2,-100,-100,-100,0,0,100,30.18,30.08,10,5,11,0.00
2013-2-18,30,6,9,-100,-100,-100,0,0,100,30.08,29.50,25,17,31,0.00
2013-2-19,32,7,10,-100,-100,-100,0,0,100,29.79,29.14,45,23,52,0.00
2013-2-20,12,2,4,-100,-100,-100,0,0,100,30.30,29.79,30,24,36,0.00
2013-2-21,15,3,4,-100,-100,-100,0,0,100,30.45,30.30,21,9,28,0.00
2013-2-22,27,5,7,-100,-100,-100,0,0,100,30.37,29.81,26,17,31,0.00
2013-2-23,32,7,21,-100,-100,-100,0,0,100,29.83,29.75,17,-10,20,0.00
2013-2-24,28,7,10,-100,-100,-100,0,0,100,30.11,29.82,15,-9,17,0.00
2013-2-25,32,8,24,-100,-100,-100,0,0,100,30.17,30.11,9,-3,11,0.00
2013-2-26,32,8,25,-100,-100,-100,0,0,100,30.19,29.91,21,9,24,0.00
2013-2-27,36,21,26,-100,-100,-100,0,0,100,29.91,29.73,19,10,21,0.00
2013-2-28,33,8,18,-100,-100,-100,0,0,100,30.15,29.78,21,16,27,0.00